Wind_Speed
12 11 11 11 10 10 10 10 11 10 10 10 10 9 9 8 8 7 7 7 6 6 5 5 5 4 4 4 4 3 2 2 2 2 3 4 4 4 5 6 6 7 7
14 13 13 13 12 11 11 11 12 11 11 11 11 11 10 10 9 9 9 8 8 7 7 6 5 5 5 5 4 4 4 4 3 3 4 5 6 6 6 6 7 7 8
16 15 15 14 14 13 13 13 13 13 12 12 12 12 12 11 11 11 10 10 9 9 9 8 7 7 6 6 6 6 5 5 5 5 6 6 6 7 7 7 8 8 9
18 17 17 16 16 15 14 14 15 15 14 14 14 14 13 12 12 12 12 11 11 11 10 10 9 9 8 7 7 7 7 7 7 7 7 7 7 8 8 8 9 10 10
19 19 18 18 17 17 16 16 16 17 17 17 16 16 15 15 14 14 13 13 12 12 12 12 11 11 10 9 9 9 9 9 9 8 9 9 9 9 10 11 11 11 11
21 21 21 20 19 19 18 18 18 18 18 18 18 18 17 17 17 16 15 15 14 14 14 14 13 12 12 12 11 11 11 11 11 10 10 11 11 11 11 12 13 13 13
23 23 23 22 22 21 21 21 20 20 20 20 19 19 18 18 18 18 17 17 16 16 16 16 15 15 14 13 13 13 13 13 12 12 12 12 13 13 13 13 14 15 14
25 25 25 25 24 23 23 23 23 22 21 21 21 21 20 20 19 19 19 19 18 18 18 17 17 16 16 15 15 15 14 14 14 14 14 14 14 14 14 14 15 16 16
28 27 27 27 26 25 25 25 25 24 23 23 23 22 22 22 21 20 21 21 21 20 20 19 19 18 18 17 17 17 16 16 16 16 16 15 15 15 15 15 16 17 17
31 30 30 30 29 28 28 27 27 26 26 25 24 24 23 23 23 22 22 22 22 22 22 21 21 21 20 20 19 19 18 18 17 17 17 17 17 17 17 17 17 18 18
33 33 32 32 31 31 31 30 29 29 28 28 27 26 25 25 24 24 24 24 24 24 24 23 23 23 22 22 21 21 20 19 19 19 19 19 18 18 18 19 19 19 20
35 35 34 34 33 33 33 32 31 31 30 30 29 28 28 27 26 26 26 25 26 26 26 25 25 25 24 23 22 22 22 21 20 20 20 20 20 20 20 20 21 21 22
37 37 36 36 36 36 35 34 33 33 32 32 31 30 30 29 28 28 28 28 27 26 26 26 26 26 26 25 24 24 23 23 23 22 22 21 21 21 22 22 22 23 23
38 38 38 38 38 38 37 36 36 35 34 34 33 32 32 31 30 30 30 29 29 28 27 27 27 27 27 26 26 25 25 25 25 24 24 23 23 23 23 24 24 24 25
41 40 39 38 39 39 38 38 38 37 36 35 35 34 33 33 33 32 32 31 31 30 29 29 29 29 29 29 28 27 27 27 27 26 26 26 26 26 26 26 25 26 26
42 41 41 40 40 41 41 39 39 38 38 37 37 36 36 35 34 34 34 33 33 32 32 31 31 30 30 30 30 29 29 28 28 28 28 28 28 27 27 27 27 28 28
43 43 42 42 41 41 41 41 40 40 39 39 38 37 37 37 36 35 35 35 34 34 33 33 33 32 32 32 31 31 31 30 30 30 30 29 28 28 28 29 29 29 30
45 45 44 44 43 43 43 42 42 42 41 40 40 39 39 38 38 37 36 36 36 36 36 35 34 34 34 33 33 33 32 32 32 32 31 31 30 29 30 30 31 31 31
46 46 46 46 46 46 46 45 44 44 43 42 41 40 40 40 40 38 37 37 38 38 38 37 36 35 35 35 35 34 34 34 33 33 32 32 31 31 31 31 31 32 32
45 46 46 46 46 47 47 46 46 46 45 44 43 42 41 40 41 41 40 39 38 39 39 39 38 37 36 36 35 35 34 34 34 34 33 33 33 33 32 32 33 33 34
45 44 44 45 45 46 46 46 46 46 45 44 44 44 43 42 42 41 40 40 39 40 40 40 39 38 38 36 35 35 35 35 35 34 34 33 33 34 33 33 34 35 36
45 44 44 44 45 44 44 45 45 46 45 45 45 45 44 44 43 43 41 40 40 41 41 41 40 40 39 38 37 36 35 35 35 35 36 35 35 36 36 35 36 37 37
45 45 45 45 45 45 45 45 45 46 46 46 45 45 45 45 44 45 43 42 41 41 42 42 40 40 39 39 38 37 36 36 36 36 37 37 37 37 37 37 37 38 39
45 45 45 44 45 46 46 45 45 45 45 44 45 45 45 45 45 45 44 43 43 43 42 42 41 41 40 40 40 39 38 38 38 38 38 39 38 38 38 39 39 39 39
45 45 45 45 45 46 46 46 46 45 45 45 45 45 45 45 46 45 45 44 44 44 43 43 42 42 41 41 40 40 40 40 40 39 39 40 40 40 40 40 40 40 40
43 43 44 45 45 46 46 46 45 45 45 45 45 45 45 44 45 45 45 45 45 45 45 45 45 44 44 43 42 42 41 42 42 41 41 41 41 41 42 42 41 41 41
Wind_Direction
242 242 242 242 243 243 241 239 236 234 232 229 229 229 230 231 233 233 231 227 221 216 213 210 212 213 214 215 215 217 230 249 273 300 317 325 326 321 321 323 325 328 328
244 244 243 244 244 244 245 244 241 238 236 234 233 234 236 237 237 237 236 234 230 227 222 220 222 225 225 229 230 233 243 258 270 286 298 310 315 315 315 316 320 322 323
245 244 244 244 244 244 245 246 243 241 239 237 238 238 239 240 240 240 240 239 237 234 232 228 227 230 231 235 237 241 249 260 271 281 293 302 310 311 313 313 316 318 319
246 245 244 244 244 245 246 246 245 243 243 242 242 242 243 242 243 243 241 241 239 238 236 235 233 234 236 239 242 247 254 262 270 279 288 295 303 305 306 309 311 313 313
247 247 245 244 245 245 245 245 245 245 245 245 245 245 245 245 245 244 244 244 243 241 239 238 238 238 239 243 247 251 256 263 270 276 281 289 297 301 302 305 306 308 308
246 248 249 248 249 247 247 247 247 246 248 248 249 249 248 247 247 245 245 246 246 244 241 242 242 242 243 246 251 255 258 263 268 274 279 286 293 297 299 302 304 305 305
247 248 250 250 251 251 249 249 249 249 249 250 250 250 250 249 250 248 246 247 247 246 244 244 244 246 247 249 253 257 261 263 268 273 278 285 290 295 297 299 303 305 305
247 249 250 252 251 251 251 250 249 249 250 250 250 250 251 251 251 250 248 248 248 247 245 246 246 246 248 251 255 258 261 264 267 272 277 283 287 291 295 297 300 303 305
250 250 250 251 250 250 250 249 250 249 250 251 252 252 252 252 251 250 249 248 247 246 246 246 247 248 249 252 256 259 262 265 267 271 276 280 284 287 291 295 298 300 301
250 250 251 252 251 250 249 249 249 249 250 251 252 252 253 253 253 252 251 249 247 246 247 249 248 250 251 253 257 259 262 265 268 271 275 279 283 284 288 292 295 298 298
250 250 250 252 252 250 250 250 250 250 251 251 251 251 253 254 254 253 251 250 250 248 248 251 251 252 253 255 257 259 261 264 269 271 273 277 280 283 286 290 292 294 296
249 250 250 251 251 250 249 249 250 250 250 250 251 252 253 254 254 253 250 251 251 251 251 251 253 254 255 257 258 259 261 264 267 271 273 276 279 282 285 288 290 292 294
249 249 250 251 251 250 249 248 249 250 250 249 250 251 252 253 253 252 251 251 252 253 253 252 254 255 256 258 258 260 262 263 267 270 272 274 277 280 284 286 288 289 291
249 250 250 251 251 250 249 248 249 250 249 249 250 251 252 253 253 253 252 251 251 252 254 255 255 255 256 258 259 260 262 264 266 268 271 273 276 278 281 283 285 287 289
248 249 250 251 250 250 249 249 249 249 249 249 250 251 252 253 253 253 253 252 251 253 254 255 256 256 256 257 258 260 263 264 266 267 269 272 275 277 279 281 283 285 287
248 249 249 249 249 249 249 249 250 250 249 249 249 251 252 252 253 253 251 251 252 253 254 255 256 258 258 258 259 260 263 264 265 267 269 271 274 276 278 279 281 283 285
248 248 248 247 247 247 247 248 249 250 250 249 250 251 252 252 252 253 252 252 253 253 254 255 256 258 259 258 259 260 262 263 264 266 268 271 273 275 277 278 280 282 283
248 247 247 247 248 248 248 247 248 249 249 250 250 251 252 252 252 252 253 253 253 253 254 254 255 257 258 258 259 260 261 262 264 266 268 270 271 273 275 277 279 281 282
247 247 247 247 249 249 248 248 248 249 248 249 250 251 251 252 252 253 253 254 254 253 253 254 255 256 258 259 259 260 261 262 263 265 267 269 271 273 275 277 278 280 283
246 247 247 247 248 249 248 248 248 247 247 248 249 250 251 252 253 253 254 254 255 254 253 253 254 256 257 259 259 260 262 262 263 264 266 268 271 273 275 277 278 280 282
246 246 246 246 248 248 247 247 247 247 248 247 248 249 250 252 253 254 255 254 254 254 253 253 254 256 256 258 259 260 261 263 264 265 266 267 271 273 275 277 278 280 282
246 246 246 246 246 247 246 246 247 247 248 248 248 249 250 251 253 253 255 255 254 253 254 254 254 255 256 258 259 261 262 263 265 266 266 267 270 273 275 277 279 281 282
246 246 246 247 247 247 246 246 247 246 247 247 248 249 249 250 252 252 253 254 253 253 254 254 253 254 255 257 258 259 262 264 266 267 268 268 270 273 275 276 279 281 282
246 245 244 246 247 247 246 246 246 247 247 248 249 248 249 250 251 250 251 252 252 252 253 253 253 253 254 256 257 259 261 264 266 267 268 270 272 274 275 277 278 281 283
245 244 244 245 246 246 245 245 246 247 248 248 248 248 250 251 250 250 251 252 252 251 252 252 253 254 255 256 257 259 262 263 265 267 269 271 273 275 275 277 278 280 283
244 243 244 244 246 246 244 245 245 247 247 248 248 248 249 251 251 251 251 251 252 251 251 252 252 253 254 255 257 259 262 264 265 267 270 271 273 275 277 277 277 280 281
Height
5852 5852 5852 5853 5853 5853 5854 5854 5855 5855 5855 5856 5856 5856 5856 5856 5857 5857 5857 5857 5857 5857 5858 5858 5858 5858 5859 5859 5859 5859 5859 5859 5858 5858 5857 5857 5857 5856 5856 5855 5854 5853 5852
5849 5850 5850 5850 5851 5851 5852 5852 5853 5853 5853 5854 5854 5854 5854 5855 5855 5855 5855 5856 5856 5856 5856 5857 5857 5857 5858 5858 5858 5858 5858 5858 5857 5857 5856 5856 5855 5855 5855 5854 5853 5852 5851
5846 5847 5847 5848 5848 5849 5850 5850 5851 5851 5851 5852 5852 5852 5852 5853 5853 5853 5854 5854 5854 5854 5855 5855 5856 5856 5856 5856 5857 5857 5857 5856 5856 5856 5855 5855 5854 5854 5853 5853 5852 5851 5850
5843 5843 5844 5845 5845 5846 5847 5847 5848 5848 5849 5849 5850 5850 5850 5850 5851 5851 5851 5852 5852 5852 5853 5853 5854 5854 5854 5855 5855 5855 5855 5855 5854 5854 5854 5853 5853 5852 5852 5851 5850 5849 5848
5839 5840 5840 5841 5842 5843 5843 5844 5844 5845 5845 5846 5846 5847 5847 5847 5848 5848 5849 5849 5850 5850 5850 5851 5852 5852 5852 5853 5853 5853 5853 5853 5853 5852 5852 5852 5851 5850 5850 5849 5848 5847 5846
5835 5836 5837 5837 5838 5839 5839 5840 5841 5841 5842 5842 5843 5843 5844 5844 5845 5845 5846 5846 5847 5847 5848 5848 5849 5849 5850 5850 5850 5851 5851 5850 5850 5850 5849 5849 5849 5848 5847 5847 5846 5845 5844
5830 5831 5832 5833 5834 5834 5835 5836 5836 5837 5838 5838 5839 5839 5840 5840 5841 5842 5842 5843 5843 5844 5845 5845 5846 5846 5847 5847 5847 5848 5848 5848 5848 5847 5847 5846 5846 5845 5845 5844 5843 5842 5841
5825 5826 5827 5828 5828 5829 5830 5831 5832 5832 5833 5834 5835 5835 5836 5836 5837 5837 5838 5839 5839 5840 5841 5842 5842 5843 5844 5844 5844 5845 5845 5845 5845 5844 5844 5843 5843 5842 5842 5841 5840 5839 5838
5819 5820 5821 5822 5823 5824 5825 5826 5827 5828 5829 5829 5830 5831 5832 5832 5833 5833 5833 5834 5835 5836 5837 5838 5839 5839 5840 5840 5841 5841 5841 5841 5841 5841 5840 5840 5840 5839 5838 5838 5837 5836 5835
5812 5814 5815 5816 5817 5818 5819 5820 5821 5822 5823 5824 5825 5826 5827 5828 5828 5829 5829 5830 5830 5831 5832 5833 5834 5835 5836 5836 5837 5837 5837 5837 5837 5837 5837 5836 5836 5836 5835 5834 5833 5832 5831
5805 5807 5808 5809 5811 5812 5813 5814 5815 5817 5818 5819 5820 5821 5822 5822 5823 5824 5824 5825 5826 5826 5827 5828 5829 5830 5831 5832 5832 5833 5833 5833 5833 5833 5833 5833 5832 5832 5831 5830 5829 5828 5827
5797 5799 5800 5802 5803 5805 5806 5807 5809 5810 5811 5813 5814 5815 5816 5817 5818 5819 5819 5820 5821 5821 5822 5823 5824 5825 5826 5827 5828 5828 5828 5829 5829 5829 5829 5828 5828 5827 5827 5826 5825 5824 5823
5789 5791 5792 5794 5796 5797 5799 5800 5802 5803 5805 5806 5808 5809 5810 5811 5812 5813 5814 5815 5815 5816 5817 5818 5819 5820 5821 5822 5822 5823 5823 5823 5824 5824 5824 5824 5823 5823 5822 5821 5821 5820 5818
5780 5782 5784 5786 5788 5789 5790 5792 5794 5796 5798 5799 5801 5802 5803 5805 5806 5807 5808 5809 5810 5811 5811 5812 5813 5814 5815 5816 5817 5817 5817 5818 5818 5818 5818 5818 5818 5818 5817 5816 5816 5815 5813
5770 5773 5775 5777 5779 5780 5782 5784 5786 5788 5790 5791 5793 5795 5796 5798 5799 5800 5801 5802 5803 5804 5805 5806 5807 5808 5809 5810 5810 5811 5811 5812 5812 5812 5812 5812 5812 5812 5811 5811 5810 5809 5808
5760 5763 5765 5767 5769 5771 5773 5776 5778 5779 5781 5783 5785 5787 5789 5790 5791 5792 5793 5795 5796 5798 5799 5800 5801 5801 5802 5803 5804 5805 5805 5805 5806 5806 5806 5806 5806 5806 5805 5805 5804 5803 5802
5749 5752 5755 5757 5759 5761 5764 5766 5769 5770 5772 5775 5777 5779 5780 5782 5783 5785 5786 5787 5789 5790 5791 5792 5793 5794 5795 5796 5797 5798 5798 5799 5799 5799 5799 5799 5799 5799 5798 5798 5797 5796 5795
5738 5741 5744 5746 5749 5751 5754 5757 5759 5761 5763 5766 5768 5770 5772 5773 5775 5777 5778 5780 5781 5782 5783 5785 5786 5787 5788 5789 5790 5790 5791 5791 5792 5792 5792 5792 5792 5792 5791 5791 5790 5789 5788
5726 5729 5732 5735 5737 5740 5743 5746 5749 5751 5754 5756 5759 5761 5763 5765 5766 5768 5770 5772 5773 5774 5775 5777 5778 5779 5780 5781 5782 5783 5783 5784 5784 5785 5785 5785 5784 5784 5784 5783 5783 5782 5781
5714 5717 5720 5723 5726 5728 5731 5734 5737 5740 5743 5746 5749 5751 5753 5756 5757 5759 5761 5763 5764 5765 5767 5768 5770 5771 5772 5773 5774 5775 5775 5776 5777 5777 5777 5777 5777 5776 5776 5776 5775 5774 5773
5702 5705 5708 5711 5714 5716 5719 5722 5725 5729 5732 5736 5739 5742 5744 5746 5748 5750 5752 5753 5755 5756 5758 5760 5761 5762 5764 5765 5766 5767 5767 5768 5768 5769 5769 5769 5769 5768 5768 5767 5767 5766 5765
5691 5694 5697 5700 5702 5705 5708 5711 5714 5717 5721 5724 5728 5730 5733 5735 5737 5740 5742 5744 5745 5747 5749 5750 5752 5753 5755 5756 5757 5758 5759 5760 5760 5761 5761 5761 5761 5760 5760 5759 5758 5757 5756
5680 5683 5686 5689 5691 5694 5697 5700 5703 5706 5709 5712 5716 5719 5722 5725 5727 5729 5732 5734 5735 5737 5739 5741 5743 5744 5746 5747 5748 5750 5750 5751 5752 5753 5753 5753 5752 5752 5751 5750 5749 5748 5746
5668 5671 5674 5677 5680 5683 5686 5689 5692 5695 5699 5702 5705 5708 5711 5713 5716 5718 5721 5723 5725 5727 5729 5731 5732 5735 5736 5738 5739 5741 5742 5742 5743 5744 5744 5744 5743 5743 5742 5741 5740 5739 5737
5655 5659 5663 5666 5669 5671 5675 5678 5681 5684 5688 5691 5693 5696 5699 5702 5704 5707 5710 5712 5714 5716 5718 5720 5722 5725 5727 5728 5730 5731 5732 5733 5733 5734 5735 5735 5734 5733 5732 5731 5730 5729 5727
5643 5647 5651 5654 5657 5660 5664 5667 5670 5673 5676 5679 5682 5685 5688 5691 5693 5695 5698 5700 5702 5705 5707 5710 5712 5714 5716 5718 5720 5722 5723 5723 5724 5724 5724 5725 5724 5724 5722 5721 5720 5718 5717